Theta_e
311 311 311 311 311 311 311 311 310 310 310 311 311 311 311 311 310 308 305 305 299 293 297 302 301 298 298 296 292 296 295 298 298 295 296 295 298 299 301 303 301 302 302 302 306 305 301 314 314 312 317 320 320 321
311 311 311 311 311 310 310 310 310 310 310 310 310 310 311 310 310 310 302 305 305 296 298 305 306 307 304 302 297 297 294 298 299 293 296 296 296 300 299 298 309 301 308 306 307 300 310 314 313 315 318 317 318 320
310 310 311 311 310 310 310 310 310 310 310 310 310 310 310 310 310 309 304 302 301 296 295 300 299 305 308 306 306 295 298 299 301 304 299 297 295 300 295 297 304 308 312 308 309 308 308 310 312 313 314 315 316 320
310 310 310 310 310 310 310 310 310 310 310 310 310 309 309 309 309 308 303 303 302 297 292 299 307 303 309 308 305 305 303 305 304 304 299 298 297 301 296 299 300 306 309 307 307 310 311 310 311 311 312 314 315 316
309 310 310 310 310 310 310 310 309 309 309 310 309 309 309 309 308 310 307 304 306 298 292 297 304 306 308 309 305 305 304 303 301 299 297 298 300 299 302 301 298 302 300 298 298 306 307 307 309 311 310 310 313 314
309 310 310 310 310 310 310 310 309 309 309 310 309 309 309 309 308 310 301 308 308 304 295 292 304 302 305 308 305 304 304 304 302 298 298 299 302 298 296 294 301 303 302 301 302 304 304 306 308 309 309 310 312 313
309 310 310 310 310 310 310 309 309 309 309 309 309 309 309 309 311 306 301 307 308 305 297 294 295 302 305 306 306 304 304 304 302 300 300 298 299 299 298 295 300 303 304 304 305 304 303 305 305 308 309 310 312 314
309 309 310 310 309 310 309 309 309 308 309 309 309 309 309 307 306 306 308 307 308 303 301 292 294 297 304 299 300 305 303 302 301 300 301 299 300 301 295 302 303 304 307 310 310 311 309 310 310 309 310 310 310 312
309 309 309 310 309 309 309 309 308 308 308 309 309 309 311 307 305 307 307 306 308 301 293 296 289 289 301 298 300 301 302 298 303 300 300 301 300 295 295 297 297 300 304 306 311 313 312 311 311 311 310 309 309 311
309 309 309 309 309 309 308 308 308 308 309 309 310 306 302 307 309 307 302 300 298 297 295 293 298 293 297 297 298 297 298 294 292 295 300 296 294 295 296 299 300 301 303 309 308 309 312 312 313 314 313 311 311 311
309 309 309 309 309 309 308 308 308 308 308 309 306 305 308 309 305 302 298 298 297 291 293 294 293 294 301 292 294 299 294 293 288 292 290 289 289 295 300 301 302 303 304 306 310 310 313 314 313 313 315 315 312 312
308 308 308 308 308 309 308 308 309 310 314 311 312 311 307 302 301 300 300 300 298 299 299 297 296 295 297 300 294 298 292 292 289 294 292 289 296 303 301 303 303 304 305 304 306 308 311 313 314 314 315 316 316 313
308 308 308 308 308 308 308 309 308 309 310 315 309 305 305 310 298 294 295 299 296 304 302 300 296 298 298 300 297 295 291 292 297 294 290 294 301 302 302 303 304 304 303 303 303 305 308 310 312 313 315 317 318 313
307 307 308 308 309 309 309 310 310 310 310 309 309 295 305 301 304 303 302 302 309 309 309 305 299 299 299 297 294 291 295 295 290 287 288 296 301 302 303 303 303 301 300 300 300 302 305 309 312 311 315 318 314 313
307 307 308 311 309 309 309 309 309 315 316 313 310 298 302 308 308 310 310 308 310 310 309 304 302 304 299 296 296 295 292 287 288 289 295 299 304 304 303 303 303 302 300 300 301 301 304 307 311 310 311 313 317 316
307 307 315 309 309 310 309 310 311 319 321 314 311 305 307 304 304 307 307 307 312 312 311 310 306 303 300 302 297 289 288 286 292 297 299 302 303 303 304 304 304 304 303 303 302 303 304 306 310 313 316 315 316 316
306 323 309 308 308 309 310 317 323 319 313 309 311 311 308 305 303 304 307 307 312 308 304 303 297 296 302 296 294 299 294 296 301 301 301 304 303 303 304 304 304 304 304 308 306 303 305 305 308 307 309 315 318 320
318 319 310 308 310 315 321 318 320 313 307 312 307 307 308 305 301 302 305 308 307 306 305 301 302 297 294 291 292 298 301 300 301 301 302 304 305 304 304 303 304 304 305 309 304 302 302 302 303 302 303 305 310 306
312 312 309 308 311 318 322 320 322 310 311 312 309 308 304 304 305 308 306 308 309 309 306 303 297 294 294 297 297 299 300 300 299 301 302 304 305 304 304 303 304 304 305 307 304 300 301 302 301 301 301 302 301 299
307 307 310 310 311 322 315 317 323 313 309 309 310 307 309 308 306 306 307 307 306 305 300 296 295 298 298 300 301 301 301 301 300 298 299 299 301 303 303 302 301 303 303 307 301 298 299 299 303 303 300 299 300 300
311 319 312 316 326 324 317 314 313 315 311 307 310 310 305 306 303 303 303 306 301 298 298 300 301 303 304 303 303 302 301 301 299 298 296 296 299 300 299 300 302 301 301 302 303 301 301 304 304 303 299 298 298 297
326 313 328 325 323 320 319 318 314 316 312 307 308 309 306 301 304 303 306 300 299 300 301 302 302 303 302 302 302 302 301 302 302 299 296 297 297 297 297 299 300 299 300 301 302 302 302 302 300 302 303 301 299 300
315 321 327 322 314 308 308 321 310 312 306 304 307 304 304 305 308 308 300 301 302 305 306 305 305 306 304 304 303 302 302 301 298 298 297 298 298 299 299 299 300 299 299 301 302 302 301 298 300 301 302 302 301 300
309 320 313 311 311 304 315 310 314 310 310 305 305 300 302 306 309 304 298 300 303 306 304 306 305 304 304 304 300 299 300 300 299 298 298 298 297 298 299 299 300 300 301 301 301 301 301 301 298 301 300 299 300 299
307 307 308 296 312 306 303 304 304 304 300 304 301 301 302 306 299 298 296 300 302 302 303 305 305 302 299 299 299 299 301 299 297 296 297 298 297 297 297 298 299 299 300 299 299 299 299 300 300 299 300 299 298 298
296 310 304 307 309 306 305 301 301 302 302 301 303 307 307 303 296 294 299 301 302 303 303 303 302 299 299 299 298 298 298 300 299 296 297 298 297 295 295 294 294 295 299 299 297 297 297 298 298 298 298 298 294 298
300 306 314 319 314 312 308 310 311 306 301 300 303 302 302 295 295 299 304 305 303 305 305 304 302 300 299 299 300 300 300 300 299 298 299 299 298 298 296 295 293 295 298 298 297 297 296 297 297 297 297 298 298 298
313 312 307 311 312 315 307 305 303 301 303 307 305 298 296 297 296 302 301 303 304 303 302 301 302 302 301 300 300 299 299 299 299 299 299 298 298 298 298 297 298 293 297 299 298 297 297 297 296 296 297 297 297 299
313 317 315 310 309 309 307 305 305 309 310 308 302 300 300 302 302 301 301 302 303 302 301 301 301 304 302 302 303 302 299 298 295 293 293 292 292 294 297 298 297 296 296 296 292 294 296 296 297 297 297 297 297 298
312 318 312 308 306 306 310 313 312 311 310 309 307 301 299 300 302 303 302 303 304 301 301 302 301 300 298 297 297 298 299 298 298 295 293 292 293 296 297 297 296 296 296 297 296 296 294 296 295 297 296 297 297 297
320 318 312 311 309 314 313 313 312 311 310 308 306 301 298 297 299 304 308 307 306 305 301 301 301 300 298 297 296 295 295 298 298 298 297 297 297 297 298 297 297 297 298 297 297 297 297 297 297 297 295 296 296 296
318 311 309 306 310 314 315 313 310 308 306 304 301 301 299 297 294 300 306 310 307 300 298 299 299 298 299 299 299 298 293 298 298 298 298 297 297 298 299 299 299 300 299 299 298 298 298 297 297 296 297 297 296 296
315 313 312 312 310 309 311 311 307 304 306 302 301 302 303 301 297 304 311 310 305 301 300 300 300 300 300 299 299 300 296 300 295 290 290 289 288 291 298 299 299 299 297 296 296 296 296 297 296 297 296 296 296 296
Wind_Speed
18 19 18 17 18 16 15 14 14 13 12 11 11 9 8 6 5 7 2 8 4 4 10 16 11 13 12 6 4 11 8 4 8 6 5 4 5 4 4 4 11 13 10 13 16 17 8 16 3 4 9 10 8 7
18 19 17 16 16 15 15 14 12 12 11 10 10 8 6 4 3 10 2 3 3 2 7 16 18 15 10 10 8 6 3 9 5 6 2 6 5 3 1 8 1 1 8 4 9 8 9 15 15 11 10 9 9 7
18 18 16 15 15 15 15 13 11 11 11 10 8 6 5 1 6 7 3 3 2 2 7 9 8 1 5 4 5 5 6 2 7 6 8 6 4 3 4 6 1 5 4 8 3 12 14 13 12 13 11 10 9 7
18 18 16 14 14 14 13 12 10 10 9 9 6 5 3 3 6 6 3 3 2 1 3 3 6 3 7 5 4 6 8 9 10 6 8 7 5 5 3 8 5 7 9 6 18 11 13 14 11 11 10 10 10 10
17 17 16 14 14 14 12 11 9 8 8 7 4 3 2 3 6 3 3 4 1 2 3 5 11 7 10 9 5 7 7 8 6 1 8 4 6 8 2 11 13 15 14 11 10 12 10 10 11 8 11 11 11 11
17 17 16 14 13 14 12 9 7 7 7 6 3 0 2 3 7 4 3 3 5 1 2 3 2 6 10 10 4 3 5 4 5 3 3 5 6 8 4 3 11 14 13 14 10 11 9 10 8 10 11 12 12 11
17 17 15 14 13 13 11 8 6 5 5 4 0 1 5 4 7 2 5 5 6 4 2 4 2 4 11 7 4 4 4 4 5 5 1 4 4 5 4 11 10 14 13 9 10 10 9 9 11 12 11 12 11 10
16 16 15 13 13 12 9 6 5 4 3 1 2 5 7 7 8 3 5 5 3 3 1 3 3 3 10 5 5 8 3 3 5 5 3 8 3 3 6 21 21 22 25 17 15 12 13 14 13 11 11 11 12 9
15 16 14 13 13 11 8 5 4 3 3 6 7 7 4 4 1 3 10 5 1 2 1 2 4 3 6 3 3 4 6 4 6 8 8 11 8 10 14 19 20 20 14 19 22 16 14 14 13 12 12 12 12 11
16 16 14 13 13 10 6 4 2 3 6 8 6 4 3 3 15 10 3 2 3 2 2 1 1 2 3 3 2 2 4 4 4 5 7 6 5 8 12 14 13 15 17 21 15 15 18 16 14 14 14 13 12 12
16 16 15 14 12 10 5 3 5 7 7 4 4 2 4 9 2 3 2 1 2 2 1 1 1 2 4 3 3 2 2 2 1 2 3 1 3 7 12 12 13 15 17 17 19 16 17 17 17 18 18 15 13 14
17 16 15 14 11 7 4 6 9 6 2 2 5 5 3 3 4 4 2 2 1 3 4 2 3 2 1 1 2 2 1 2 2 0 2 3 6 13 13 10 10 15 18 20 20 19 19 19 16 17 17 18 14 13
17 17 15 12 7 4 6 8 11 10 7 4 3 4 5 5 4 3 4 1 1 4 5 5 3 3 3 3 2 1 2 3 1 2 2 4 14 16 17 16 14 16 19 19 21 20 19 20 14 16 16 17 14 13
18 18 16 7 3 7 8 7 11 7 5 5 7 2 4 3 4 1 3 4 3 3 0 3 3 3 3 2 2 1 2 1 2 3 3 10 16 17 17 16 13 14 18 18 18 19 19 17 16 13 13 13 9 11
18 17 11 2 10 8 6 9 12 6 6 5 1 1 2 3 3 3 3 2 6 5 2 2 3 4 3 3 3 3 2 4 3 3 5 9 14 15 17 18 18 15 14 15 16 16 17 18 15 11 11 14 11 10
19 16 2 6 8 6 11 10 6 5 5 3 4 4 5 6 7 7 8 8 5 2 3 3 3 3 3 2 4 6 4 3 3 4 6 9 13 14 16 17 17 16 11 13 14 16 15 17 17 16 14 11 10 10
18 1 7 4 5 2 5 5 5 7 4 3 1 6 5 6 8 8 9 8 6 5 3 2 6 8 4 5 3 3 4 3 6 5 6 6 11 14 15 16 17 17 18 14 13 16 16 15 14 16 17 16 15 13
5 7 8 6 5 6 6 6 5 3 3 4 5 7 9 8 6 7 9 10 7 3 6 4 4 9 6 5 4 2 4 6 5 5 6 10 11 12 12 14 15 16 16 16 16 15 15 16 14 12 16 16 18 18
12 13 15 12 6 5 2 3 3 3 4 4 6 7 4 1 2 5 6 8 4 6 2 3 5 4 4 3 6 5 6 8 9 8 8 10 10 12 11 14 13 14 14 17 18 10 10 14 12 11 10 10 11 12
15 12 9 6 10 5 3 2 2 3 4 4 4 5 2 3 4 3 3 4 5 4 5 4 4 6 8 7 6 7 8 8 8 8 8 9 9 11 11 11 10 12 10 11 11 10 8 9 8 9 10 12 12 13
4 7 5 6 8 5 4 4 5 3 4 3 2 2 4 3 3 4 7 6 8 7 6 4 6 8 7 6 7 8 8 8 8 7 9 9 9 9 9 9 10 9 9 10 8 6 6 9 6 8 10 10 10 10
4 3 4 5 3 2 0 3 3 4 3 4 2 3 2 3 4 4 4 3 3 4 2 5 7 5 7 7 7 8 8 10 6 5 7 9 9 8 9 8 9 9 9 10 7 7 7 8 8 6 8 7 6 7
4 5 5 2 2 2 1 2 2 3 3 3 4 3 3 2 2 2 2 3 3 3 4 7 5 2 2 4 5 9 10 10 8 8 9 9 8 8 8 8 8 9 9 9 9 8 7 6 6 9 11 8 8 8
3 4 4 1 1 1 3 2 1 3 3 4 2 1 4 2 2 3 2 2 5 2 6 3 5 4 7 5 7 8 9 8 8 7 9 9 9 8 8 9 8 8 11 13 12 11 10 10 10 10 10 13 12 11
2 2 2 4 3 4 2 2 3 2 2 4 2 1 1 2 3 3 3 4 6 4 4 4 3 4 6 7 6 7 8 9 9 8 8 8 8 9 9 8 9 9 12 10 11 13 13 11 11 12 11 12 15 12
1 3 1 2 1 4 4 5 4 5 4 3 3 2 2 3 3 2 3 5 3 4 2 5 7 5 5 6 5 6 7 6 7 7 7 7 8 9 10 12 11 10 11 12 9 12 13 14 13 14 12 10 9 13
3 4 3 1 4 2 4 3 1 3 3 1 1 1 2 3 1 4 7 9 8 7 8 6 6 7 7 7 6 6 7 7 8 8 6 5 7 9 9 9 9 9 9 13 12 12 12 12 12 13 12 10 10 10
2 2 6 2 3 1 6 4 2 3 4 4 3 2 3 7 8 7 10 8 9 10 6 6 6 7 7 7 6 6 6 7 9 9 8 8 9 8 10 8 7 6 4 7 11 11 11 11 12 12 13 11 9 9
5 1 3 7 4 2 1 4 4 4 5 1 1 4 5 5 6 5 8 8 7 3 5 3 4 1 2 5 1 3 6 7 10 12 12 9 7 6 7 7 8 8 7 8 5 4 9 10 11 11 12 10 10 10
0 2 6 2 3 6 6 7 7 6 6 8 11 11 8 6 7 7 5 2 1 4 4 3 4 5 5 6 6 6 8 9 10 10 9 9 8 7 6 6 7 7 7 8 7 7 5 9 6 8 8 8 8 11
3 3 4 2 5 6 6 7 5 6 8 9 12 11 8 4 2 2 1 2 3 7 3 5 5 7 8 9 8 8 9 9 11 12 11 10 9 8 8 7 7 7 9 9 10 10 10 10 9 10 9 10 11 10
2 2 5 6 8 5 4 3 5 7 10 9 9 11 7 3 3 3 4 3 4 3 3 5 9 9 8 7 6 7 3 7 8 9 12 10 10 12 12 10 9 10 12 12 9 9 12 12 12 12 11 12 13 12
2 3 1 0 4 6 4 4 5 4 8 5 3 4 5 3 4 4 2 3 2 5 5 8 7 7 6 6 6 3 1 9 7 1 2 3 6 9 10 9 11 12 12 10 10 11 13 15 13 14 13 13 13 14
Wind_Direction
308 310 315 317 318 322 321 321 322 325 326 322 317 314 300 283 208 188 146 180 175 226 279 288 308 314 311 335 328 343 315 326 304 321 344 354 354 76 268 320 179 192 197 205 234 224 119 336 64 326 35 75 45 22
306 309 314 318 317 319 318 320 323 328 329 328 325 325 318 303 204 188 194 180 207 247 284 313 292 275 285 294 287 281 320 278 309 308 34 252 40 283 181 191 86 112 19 351 16 69 68 53 79 67 64 60 40 15
305 311 316 316 315 316 316 318 324 330 332 338 335 345 354 20 162 187 109 125 134 291 283 264 339 28 304 278 221 248 319 297 316 333 302 295 58 9 30 290 354 117 315 139 134 99 78 68 69 58 51 44 33 13
307 308 312 314 315 314 314 315 324 327 331 346 354 8 18 99 144 150 154 174 235 139 279 360 305 3 332 292 276 280 279 298 281 298 306 316 357 5 106 283 13 44 30 61 106 112 107 62 38 41 36 35 28 8
306 309 312 314 313 312 315 313 320 321 326 343 359 22 11 129 152 182 138 192 279 287 319 305 342 33 13 327 271 263 274 291 304 84 286 0 9 319 72 14 30 39 31 25 60 30 23 29 18 5 15 13 19 356
306 311 313 313 311 313 316 317 319 314 318 319 318 353 130 162 198 181 193 166 184 100 268 304 64 6 344 322 269 236 246 265 286 317 332 293 39 336 4 116 342 62 38 8 18 357 341 324 327 355 353 349 360 345
307 310 314 313 316 316 315 312 307 301 313 309 198 214 171 177 258 350 22 35 122 167 267 291 83 13 352 320 256 182 186 278 305 307 319 299 101 284 314 73 46 359 357 1 338 343 336 343 346 339 337 335 330 330
303 311 313 313 317 318 314 310 298 293 292 239 124 151 153 115 116 147 72 82 5 279 38 314 17 19 21 357 345 334 304 215 166 327 257 350 266 233 53 357 356 351 338 338 345 328 307 308 304 304 313 314 318 325
309 313 311 317 315 314 314 307 291 273 197 158 148 160 171 222 139 88 126 109 114 34 83 335 351 21 353 39 306 324 329 347 342 9 27 301 8 49 351 341 331 319 310 307 312 306 302 302 306 306 301 301 300 310
315 311 316 319 312 309 306 292 255 177 173 164 193 221 164 63 110 127 176 227 122 54 23 23 13 38 334 359 25 1 17 30 19 16 335 28 7 322 314 325 332 334 326 335 326 322 319 309 301 299 296 296 295 300
316 316 319 315 312 310 284 216 158 157 166 209 217 78 75 131 218 212 208 231 135 129 181 128 350 346 93 349 14 86 71 37 29 30 342 330 310 309 307 323 327 335 343 335 324 326 307 302 301 296 290 280 281 284
315 320 317 315 311 297 228 188 176 205 186 59 92 127 136 222 224 242 112 140 274 63 150 180 148 197 260 157 280 112 73 210 92 179 253 342 340 358 359 342 353 349 347 345 342 330 322 314 303 285 275 274 267 273
317 319 318 312 298 242 223 206 203 262 215 172 189 192 210 162 5 59 340 283 248 161 166 170 162 183 187 217 261 214 252 67 63 228 72 325 10 1 358 355 354 3 350 341 339 337 329 319 312 293 275 265 265 270
319 321 323 312 313 284 262 219 192 208 244 233 199 246 276 42 24 74 23 347 82 36 99 148 139 209 139 179 7 52 44 263 61 24 21 2 10 356 356 356 3 0 353 345 340 339 332 327 326 316 294 274 266 278
320 323 326 338 333 312 199 178 181 213 263 252 266 270 54 342 53 37 333 155 61 95 239 139 245 204 153 141 172 185 187 72 41 9 354 15 3 354 355 355 357 6 354 350 347 342 339 341 334 311 296 295 273 269
325 309 95 18 356 96 129 152 172 242 245 260 17 32 349 15 1 17 17 10 37 85 273 207 273 234 185 128 72 22 26 34 318 340 325 11 10 354 351 354 353 353 355 356 355 350 344 345 342 337 323 250 267 271
312 52 132 64 22 159 235 263 208 226 267 76 55 28 23 11 22 14 11 3 320 349 275 77 345 15 360 68 77 47 355 309 299 338 352 21 8 353 347 352 350 351 349 5 18 4 356 352 345 7 359 335 317 297
251 128 134 67 332 173 216 217 268 39 71 7 33 30 49 23 33 13 329 343 349 11 13 53 30 34 35 41 7 32 9 353 323 338 351 14 5 355 348 351 347 349 347 24 27 9 3 5 12 7 3 355 20 8
299 304 302 306 281 289 243 220 310 17 67 58 63 65 71 96 195 240 261 305 320 347 55 63 53 53 61 36 5 11 13 5 344 346 347 15 357 344 350 345 349 349 349 53 40 17 360 9 21 11 12 14 26 19
291 273 269 235 206 256 246 87 230 53 51 61 67 70 51 8 345 351 338 26 34 38 48 60 74 42 33 34 9 11 20 342 334 341 358 350 352 329 6 341 351 334 344 72 57 45 19 9 4 19 16 20 21 24
201 132 168 211 201 258 352 327 78 74 76 78 86 69 42 27 358 35 41 42 60 80 91 74 86 82 39 32 27 356 25 346 339 355 0 341 332 353 352 349 349 353 353 348 74 83 46 35 55 49 32 21 19 15
77 208 261 172 263 161 222 32 47 131 109 126 149 111 69 18 334 47 359 88 65 57 73 63 43 49 91 47 41 20 5 335 12 17 17 329 355 357 351 351 356 5 353 350 28 14 22 58 9 19 71 65 37 20
260 208 220 228 227 84 212 256 57 119 130 150 150 180 150 192 248 172 294 71 75 38 61 80 115 102 111 118 95 53 5 346 357 18 8 348 358 4 349 352 18 7 346 352 346 15 22 4 48 15 15 16 72 46
149 277 289 272 172 274 177 206 52 90 147 174 226 136 143 160 172 270 107 87 120 75 98 187 236 191 186 99 53 55 2 346 349 22 15 354 357 1 357 360 22 8 348 360 3 4 4 7 358 15 32 11 5 22
250 309 174 281 251 265 308 13 351 190 15 117 174 101 141 133 236 211 129 114 125 156 149 244 128 55 19 20 33 48 41 5 356 4 19 355 1 351 355 360 15 19 9 5 353 354 349 359 359 359 8 29 357 12
50 171 211 3 147 313 351 350 7 8 29 351 76 67 221 235 250 128 96 100 128 129 53 59 23 34 71 64 21 17 10 21 12 359 7 1 19 355 353 12 2 9 14 334 346 344 347 346 347 350 352 16 25 358
230 150 173 192 308 258 254 138 63 301 11 324 186 176 201 246 99 60 66 48 67 48 55 43 27 36 36 27 25 31 22 1 34 346 341 16 24 23 11 20 14 358 348 354 353 355 352 345 350 350 353 2 14 9
307 257 284 147 260 258 305 326 327 0 36 23 308 16 6 23 38 24 72 65 58 50 38 63 48 38 34 20 26 19 20 1 8 1 355 43 20 21 11 6 24 307 332 11 351 5 359 352 349 352 351 351 10 10
262 173 309 281 319 250 239 1 25 62 27 338 106 79 74 64 27 42 58 73 74 52 277 75 77 318 53 92 14 6 44 19 3 1 4 18 16 6 4 353 354 355 349 346 186 259 326 329 327 333 331 351 4 1
279 11 304 342 306 28 55 6 61 59 58 72 88 96 74 72 51 63 70 88 114 283 45 44 20 20 18 8 36 71 57 38 24 12 350 358 19 19 2 352 351 340 339 338 348 354 338 331 357 355 3 6 5 10
348 283 260 312 72 51 72 84 89 102 85 82 95 108 114 113 46 329 226 202 251 282 58 39 358 31 32 43 23 9 50 46 31 29 2 347 17 7 350 352 351 355 348 1 3 3 6 5 358 4 2 5 5 8
234 347 337 357 73 96 171 160 89 78 88 98 101 105 114 90 95 227 202 220 305 73 47 345 36 45 27 60 63 103 39 57 36 30 17 7 3 358 352 356 8 359 354 343 358 353 345 355 352 3 2 3 13 15
221 75 24 65 164 173 137 129 112 117 119 119 96 102 93 95 85 73 130 233 321 71 35 51 57 87 87 58 33 77 168 73 76 141 125 319 321 329 322 4 1 349 355 356 356 3 360 356 2 7 6 6 7 12